TimeEDT,TemperatureF,Dew PointF,Humidity,Sea Level PressureIn,VisibilityMPH,Wind Direction,Wind SpeedMPH,Gust SpeedMPH,PrecipitationIn,Events,Conditions,WindDirDegrees,DateUTC
12:53 AM,71.1,64.0,78,29.88,10.0,Calm,Calm,-,N/A,,Clear,0,2013-06-18 04:53:00
1:53 AM,70.0,64.9,84,29.87,10.0,Calm,Calm,-,N/A,,Clear,0,2013-06-18 05:53:00
2:53 AM,70.0,64.9,84,29.86,10.0,Calm,Calm,-,N/A,,Clear,0,2013-06-18 06:53:00
3:53 AM,70.0,66.0,87,29.86,9.0,SSW,4.6,-,N/A,,Scattered Clouds,200,2013-06-18 07:53:00
4:53 AM,69.1,64.9,87,29.85,8.0,Calm,Calm,-,N/A,,Clear,0,2013-06-18 08:53:00
5:53 AM,68.0,64.9,90,29.86,8.0,West,5.8,-,N/A,,Clear,270,2013-06-18 09:53:00
6:53 AM,70.0,66.0,87,29.86,7.0,NE,3.5,-,N/A,,Overcast,50,2013-06-18 10:53:00
7:53 AM,70.0,66.0,87,29.87,6.0,Calm,Calm,-,0.00,,Clear,0,2013-06-18 11:53:00
8:53 AM,71.1,66.0,84,29.89,7.0,WSW,9.2,-,N/A,,Clear,250,2013-06-18 12:53:00
9:53 AM,71.1,64.9,81,29.90,10.0,West,8.1,-,N/A,,Clear,260,2013-06-18 13:53:00
10:53 AM,73.0,64.9,76,29.91,10.0,West,6.9,-,N/A,,Partly Cloudy,260,2013-06-18 14:53:00
11:53 AM,75.9,64.9,69,29.91,10.0,Calm,Calm,-,N/A,,Partly Cloudy,0,2013-06-18 15:53:00
12:53 PM,78.1,64.9,64,29.90,10.0,NNW,6.9,-,N/A,,Mostly Cloudy,330,2013-06-18 16:53:00
1:53 PM,80.1,64.0,58,29.88,10.0,NNE,5.8,-,N/A,,Scattered Clouds,20,2013-06-18 17:53:00
2:53 PM,79.0,64.0,60,29.89,10.0,NNW,11.5,-,N/A,,Scattered Clouds,340,2013-06-18 18:53:00
3:53 PM,80.1,63.0,56,29.87,10.0,North,13.8,-,N/A,,Partly Cloudy,360,2013-06-18 19:53:00
4:53 PM,80.1,61.0,52,29.88,10.0,North,13.8,-,N/A,,Partly Cloudy,350,2013-06-18 20:53:00
5:53 PM,79.0,61.0,54,29.88,10.0,North,16.1,-,N/A,,Scattered Clouds,360,2013-06-18 21:53:00
6:53 PM,75.0,60.1,60,29.90,10.0,North,13.8,20.7,N/A,,Partly Cloudy,360,2013-06-18 22:53:00
7:53 PM,71.1,59.0,66,29.93,10.0,North,12.7,-,N/A,,Partly Cloudy,10,2013-06-18 23:53:00
8:53 PM,69.1,57.9,68,29.96,10.0,North,12.7,-,N/A,,Partly Cloudy,360,2013-06-19 00:53:00
9:53 PM,66.0,57.0,73,29.98,10.0,North,15.0,-,N/A,,Clear,360,2013-06-19 01:53:00
10:53 PM,64.0,55.0,73,30.00,10.0,North,12.7,-,N/A,,Clear,10,2013-06-19 02:53:00
11:53 PM,62.1,55.0,78,30.00,10.0,North,9.2,-,N/A,,Clear,10,2013-06-19 03:53:00